QPF
0.00 0.00 0.00 0.00 0.00 0.01 0.01 0.00 0.01 0.01 0.01 0.02 0.01 0.01 0.01 0.01 0.01 0.02 0.01 0.00 0.00 0.00 0.01 0.01 0.01 0.01 0.01 0.01 0.01 0.01 0.01 0.01 0.02 0.02 0.02 0.02 0.02 0.02 0.02 0.03 0.03 0.03 0.03 0.03 0.04 0.04 0.04 0.04 0.03
0.00 0.00 0.00 0.00 0.00 0.00 0.00 0.01 0.01 0.00 0.01 0.01 0.02 0.02 0.00 0.00 0.00 0.00 0.00 0.00 0.00 0.00 0.01 0.01 0.02 0.02 0.01 0.01 0.01 0.01 0.02 0.01 0.01 0.01 0.01 0.01 0.02 0.02 0.03 0.03 0.03 0.03 0.04 0.04 0.04 0.04 0.04 0.04 0.04
0.00 0.00 0.00 0.00 0.00 0.00 0.00 0.00 0.00 0.00 0.01 0.01 0.01 0.01 0.00 0.01 0.00 0.00 0.00 0.00 0.00 0.01 0.01 0.01 0.01 0.01 0.01 0.01 0.01 0.01 0.02 0.02 0.01 0.02 0.02 0.02 0.01 0.01 0.02 0.03 0.03 0.03 0.03 0.03 0.04 0.04 0.04 0.04 0.03
0.00 0.00 0.00 0.00 0.00 0.00 0.00 0.00 0.00 0.01 0.01 0.01 0.01 0.00 0.00 0.00 0.00 0.00 0.00 0.00 0.00 0.01 0.01 0.01 0.01 0.01 0.01 0.01 0.01 0.01 0.01 0.01 0.01 0.02 0.03 0.03 0.02 0.01 0.01 0.02 0.02 0.02 0.03 0.03 0.03 0.03 0.03 0.02 0.02
0.00 0.00 0.00 0.00 0.00 0.00 0.00 0.00 0.01 0.00 0.00 0.01 0.01 0.01 0.01 0.00 0.00 0.00 0.00 0.00 0.00 0.00 0.01 0.01 0.01 0.01 0.01 0.01 0.01 0.01 0.01 0.01 0.01 0.01 0.02 0.03 0.02 0.01 0.01 0.01 0.02 0.02 0.02 0.02 0.02 0.03 0.02 0.02 0.02
0.00 0.00 0.00 0.00 0.00 0.00 0.00 0.00 0.01 0.00 0.00 0.01 0.01 0.01 0.01 0.01 0.00 0.00 0.00 0.00 0.00 0.00 0.00 0.01 0.01 0.01 0.02 0.01 0.01 0.01 0.02 0.02 0.01 0.01 0.01 0.01 0.01 0.01 0.01 0.02 0.02 0.02 0.02 0.02 0.03 0.02 0.02 0.02 0.02
0.00 0.00 0.00 0.00 0.00 0.00 0.00 0.00 0.01 0.01 0.01 0.01 0.00 0.01 0.01 0.01 0.00 0.00 0.00 0.00 0.00 0.00 0.01 0.01 0.01 0.02 0.02 0.02 0.02 0.02 0.02 0.02 0.02 0.02 0.02 0.02 0.01 0.01 0.02 0.03 0.03 0.03 0.03 0.03 0.02 0.02 0.02 0.02 0.02
0.00 0.00 0.00 0.00 0.00 0.00 0.00 0.00 0.00 0.01 0.01 0.00 0.01 0.01 0.01 0.01 0.01 0.00 0.00 0.00 0.00 0.00 0.01 0.02 0.03 0.03 0.02 0.02 0.02 0.01 0.01 0.02 0.02 0.03 0.03 0.03 0.03 0.04 0.04 0.03 0.04 0.04 0.04 0.03 0.02 0.02 0.02 0.02 0.02
0.00 0.00 0.00 0.00 0.00 0.00 0.00 0.00 0.00 0.01 0.01 0.01 0.01 0.01 0.01 0.01 0.01 0.01 0.01 0.01 0.01 0.01 0.01 0.02 0.03 0.03 0.02 0.01 0.01 0.02 0.02 0.02 0.02 0.03 0.02 0.03 0.03 0.04 0.05 0.04 0.05 0.05 0.04 0.04 0.03 0.03 0.02 0.02 0.02
0.00 0.00 0.00 0.00 0.00 0.00 0.00 0.00 0.01 0.01 0.01 0.01 0.00 0.01 0.01 0.01 0.01 0.01 0.01 0.02 0.01 0.01 0.02 0.02 0.03 0.03 0.03 0.02 0.02 0.02 0.02 0.02 0.01 0.02 0.02 0.04 0.05 0.05 0.05 0.05 0.04 0.04 0.04 0.04 0.04 0.04 0.03 0.03 0.02
0.00 0.00 0.00 0.00 0.00 0.00 0.00 0.00 0.00 0.01 0.01 0.01 0.00 0.01 0.02 0.02 0.02 0.02 0.02 0.02 0.02 0.02 0.02 0.02 0.03 0.04 0.06 0.05 0.02 0.02 0.03 0.03 0.03 0.04 0.04 0.05 0.05 0.05 0.05 0.06 0.07 0.06 0.05 0.05 0.05 0.05 0.04 0.04 0.03
0.00 0.00 0.00 0.00 0.00 0.00 0.00 0.00 0.01 0.01 0.01 0.01 0.01 0.01 0.02 0.02 0.02 0.03 0.02 0.02 0.02 0.03 0.03 0.02 0.03 0.04 0.06 0.08 0.04 0.03 0.03 0.05 0.06 0.07 0.06 0.05 0.05 0.05 0.06 0.07 0.08 0.08 0.07 0.06 0.06 0.06 0.05 0.05 0.04
0.00 0.00 0.00 0.00 0.00 0.00 0.00 0.00 0.01 0.01 0.01 0.01 0.01 0.02 0.02 0.02 0.02 0.02 0.02 0.03 0.03 0.03 0.02 0.02 0.02 0.04 0.05 0.07 0.06 0.04 0.04 0.05 0.07 0.07 0.07 0.07 0.07 0.09 0.11 0.11 0.08 0.07 0.08 0.08 0.08 0.08 0.07 0.06 0.06
0.00 0.00 0.00 0.00 0.00 0.00 0.00 0.00 0.01 0.01 0.01 0.01 0.01 0.03 0.03 0.02 0.02 0.02 0.02 0.02 0.02 0.03 0.03 0.02 0.02 0.04 0.04 0.05 0.04 0.04 0.04 0.05 0.05 0.06 0.08 0.08 0.10 0.11 0.13 0.10 0.07 0.06 0.07 0.08 0.09 0.09 0.09 0.08 0.07
0.00 0.00 0.00 0.00 0.00 0.00 0.00 0.00 0.01 0.03 0.01 0.01 0.02 0.03 0.03 0.03 0.03 0.02 0.01 0.02 0.02 0.02 0.03 0.03 0.02 0.03 0.03 0.04 0.04 0.04 0.06 0.09 0.09 0.09 0.08 0.07 0.07 0.08 0.09 0.11 0.10 0.09 0.10 0.11 0.10 0.08 0.08 0.07 0.07
0.00 0.00 0.00 0.00 0.00 0.00 0.01 0.01 0.01 0.03 0.01 0.02 0.03 0.03 0.03 0.03 0.03 0.02 0.02 0.02 0.01 0.01 0.01 0.02 0.02 0.03 0.04 0.05 0.07 0.08 0.09 0.10 0.12 0.13 0.11 0.08 0.06 0.06 0.06 0.08 0.09 0.10 0.11 0.10 0.11 0.11 0.09 0.07 0.07
0.00 0.00 0.00 0.00 0.00 0.00 0.01 0.02 0.03 0.03 0.02 0.02 0.03 0.03 0.03 0.02 0.02 0.02 0.03 0.02 0.01 0.01 0.01 0.01 0.02 0.04 0.04 0.05 0.07 0.07 0.07 0.06 0.06 0.07 0.08 0.09 0.08 0.07 0.08 0.08 0.07 0.06 0.06 0.06 0.07 0.08 0.08 0.07 0.06
0.00 0.00 0.00 0.00 0.00 0.01 0.01 0.02 0.03 0.03 0.04 0.04 0.03 0.05 0.04 0.02 0.03 0.04 0.04 0.02 0.02 0.02 0.01 0.02 0.03 0.02 0.02 0.03 0.03 0.03 0.04 0.05 0.04 0.04 0.04 0.04 0.05 0.06 0.08 0.09 0.07 0.05 0.05 0.05 0.05 0.06 0.05 0.04 0.05
0.00 0.00 0.00 0.00 0.00 0.01 0.01 0.01 0.02 0.02 0.03 0.04 0.04 0.04 0.04 0.03 0.02 0.02 0.02 0.02 0.02 0.02 0.02 0.02 0.02 0.02 0.03 0.03 0.02 0.02 0.03 0.04 0.04 0.04 0.05 0.06 0.07 0.09 0.11 0.10 0.08 0.06 0.06 0.06 0.05 0.05 0.04 0.04 0.04
0.01 0.01 0.00 0.00 0.00 0.00 0.00 0.01 0.01 0.02 0.03 0.05 0.04 0.03 0.03 0.02 0.03 0.03 0.02 0.02 0.02 0.02 0.02 0.02 0.02 0.03 0.03 0.03 0.03 0.02 0.02 0.03 0.04 0.04 0.05 0.07 0.09 0.09 0.09 0.09 0.09 0.07 0.06 0.06 0.06 0.05 0.05 0.05 0.05
0.01 0.00 0.00 0.01 0.00 0.00 0.01 0.01 0.02 0.02 0.05 0.06 0.05 0.03 0.02 0.02 0.03 0.04 0.03 0.02 0.02 0.02 0.02 0.02 0.02 0.02 0.03 0.03 0.03 0.02 0.03 0.04 0.04 0.05 0.06 0.07 0.09 0.09 0.09 0.10 0.08 0.06 0.06 0.05 0.04 0.04 0.05 0.05 0.05
0.00 0.00 0.01 0.01 0.01 0.01 0.01 0.02 0.02 0.02 0.05 0.08 0.08 0.05 0.03 0.02 0.02 0.03 0.03 0.02 0.02 0.02 0.02 0.02 0.01 0.02 0.02 0.02 0.03 0.04 0.04 0.05 0.05 0.06 0.06 0.07 0.10 0.11 0.12 0.12 0.08 0.05 0.05 0.06 0.06 0.05 0.05 0.05 0.05
0.00 0.01 0.01 0.01 0.01 0.02 0.02 0.04 0.08 0.08 0.08 0.06 0.06 0.06 0.04 0.03 0.02 0.02 0.01 0.02 0.02 0.02 0.03 0.03 0.02 0.02 0.02 0.02 0.03 0.04 0.05 0.05 0.06 0.08 0.09 0.11 0.10 0.09 0.08 0.07 0.08 0.07 0.06 0.06 0.06 0.05 0.06 0.07 0.07
0.00 0.00 0.01 0.01 0.01 0.02 0.02 0.04 0.07 0.09 0.09 0.07 0.05 0.05 0.04 0.03 0.03 0.02 0.02 0.02 0.02 0.02 0.03 0.03 0.02 0.02 0.02 0.03 0.04 0.04 0.05 0.06 0.07 0.07 0.07 0.06 0.06 0.07 0.07 0.07 0.07 0.08 0.09 0.10 0.10 0.08 0.06 0.06 0.08
0.00 0.01 0.01 0.01 0.01 0.01 0.01 0.03 0.05 0.06 0.07 0.06 0.06 0.06 0.04 0.02 0.02 0.02 0.01 0.02 0.03 0.03 0.02 0.02 0.02 0.02 0.02 0.02 0.02 0.03 0.05 0.05 0.06 0.07 0.06 0.06 0.05 0.05 0.06 0.06 0.07 0.07 0.07 0.09 0.11 0.11 0.10 0.09 0.08
0.00 0.00 0.01 0.01 0.01 0.01 0.01 0.02 0.02 0.02 0.02 0.02 0.02 0.02 0.02 0.02 0.01 0.01 0.01 0.03 0.04 0.03 0.02 0.02 0.02 0.02 0.02 0.02 0.02 0.03 0.05 0.05 0.05 0.05 0.05 0.05 0.05 0.05 0.05 0.06 0.07 0.07 0.07 0.06 0.07 0.09 0.10 0.10 0.08
0.00 0.00 0.00 0.02 0.03 0.02 0.01 0.01 0.01 0.01 0.01 0.01 0.01 0.01 0.02 0.01 0.01 0.01 0.01 0.03 0.05 0.04 0.04 0.03 0.04 0.03 0.03 0.03 0.03 0.04 0.05 0.06 0.05 0.04 0.04 0.05 0.06 0.06 0.05 0.05 0.06 0.06 0.07 0.09 0.10 0.10 0.09 0.09 0.09
0.00 0.00 0.01 0.03 0.04 0.02 0.01 0.01 0.01 0.01 0.01 0.01 0.01 0.01 0.01 0.01 0.01 0.01 0.01 0.02 0.03 0.04 0.05 0.04 0.04 0.03 0.03 0.05 0.05 0.04 0.04 0.05 0.05 0.04 0.04 0.05 0.04 0.04 0.04 0.06 0.07 0.07 0.07 0.07 0.09 0.12 0.12 0.11 0.09
0.00 0.00 0.01 0.03 0.04 0.02 0.01 0.01 0.01 0.01 0.01 0.00 0.01 0.01 0.01 0.01 0.01 0.02 0.01 0.01 0.01 0.02 0.02 0.03 0.03 0.03 0.03 0.04 0.04 0.03 0.03 0.04 0.05 0.05 0.05 0.05 0.05 0.04 0.05 0.05 0.07 0.08 0.06 0.06 0.06 0.06 0.07 0.08 0.09
0.00 0.00 0.01 0.02 0.04 0.02 0.02 0.02 0.02 0.02 0.02 0.01 0.01 0.01 0.01 0.01 0.01 0.02 0.02 0.01 0.01 0.01 0.01 0.02 0.02 0.02 0.03 0.05 0.03 0.03 0.03 0.03 0.04 0.05 0.05 0.06 0.05 0.05 0.05 0.04 0.04 0.04 0.05 0.05 0.06 0.06 0.05 0.06 0.06
MSLP
1010.20 1010.38 1010.68 1011.00 1011.26 1011.40 1011.39 1011.23 1010.99 1010.73 1010.50 1010.35 1010.27 1010.24 1010.21 1010.11 1009.93 1009.65 1009.33 1009.03 1008.84 1008.81 1008.98 1009.34 1009.83 1010.35 1010.83 1011.18 1011.37 1011.41 1011.35 1011.25 1011.19 1011.21 1011.33 1011.54 1011.79 1012.04 1012.24 1012.35 1012.37 1012.35 1012.31 1012.29 1012.34 1012.46 1012.62 1012.82 1012.99
1010.18 1010.45 1010.81 1011.15 1011.41 1011.51 1011.43 1011.19 1010.84 1010.45 1010.11 1009.86 1009.71 1009.64 1009.60 1009.54 1009.42 1009.22 1008.98 1008.75 1008.60 1008.60 1008.79 1009.15 1009.65 1010.21 1010.74 1011.17 1011.45 1011.58 1011.58 1011.51 1011.44 1011.42 1011.46 1011.58 1011.74 1011.89 1012.01 1012.07 1012.07 1012.03 1012.00 1012.01 1012.08 1012.23 1012.43 1012.65 1012.85
1010.11 1010.44 1010.82 1011.17 1011.40 1011.45 1011.31 1011.01 1010.58 1010.13 1009.72 1009.41 1009.22 1009.12 1009.08 1009.04 1008.95 1008.80 1008.60 1008.42 1008.30 1008.32 1008.52 1008.90 1009.44 1010.04 1010.64 1011.15 1011.52 1011.73 1011.79 1011.76 1011.68 1011.62 1011.59 1011.62 1011.69 1011.76 1011.81 1011.83 1011.82 1011.78 1011.76 1011.79 1011.88 1012.04 1012.26 1012.49 1012.69
1010.03 1010.38 1010.75 1011.07 1011.25 1011.26 1011.08 1010.73 1010.29 1009.82 1009.39 1009.07 1008.86 1008.76 1008.71 1008.67 1008.59 1008.45 1008.27 1008.10 1008.00 1008.04 1008.25 1008.65 1009.20 1009.85 1010.50 1011.08 1011.52 1011.79 1011.91 1011.90 1011.81 1011.71 1011.64 1011.60 1011.60 1011.62 1011.64 1011.64 1011.62 1011.60 1011.60 1011.64 1011.74 1011.90 1012.11 1012.31 1012.49
1009.98 1010.31 1010.63 1010.89 1011.02 1010.98 1010.78 1010.44 1010.01 1009.56 1009.17 1008.87 1008.68 1008.57 1008.52 1008.46 1008.37 1008.22 1008.04 1007.87 1007.77 1007.81 1008.02 1008.42 1008.99 1009.64 1010.31 1010.91 1011.38 1011.69 1011.82 1011.82 1011.74 1011.62 1011.51 1011.44 1011.41 1011.42 1011.43 1011.45 1011.46 1011.47 1011.49 1011.54 1011.64 1011.78 1011.94 1012.10 1012.22
1009.99 1010.25 1010.50 1010.67 1010.73 1010.66 1010.46 1010.15 1009.77 1009.39 1009.06 1008.82 1008.65 1008.56 1008.50 1008.42 1008.31 1008.15 1007.95 1007.78 1007.67 1007.70 1007.90 1008.28 1008.81 1009.43 1010.07 1010.64 1011.08 1011.36 1011.49 1011.48 1011.39 1011.27 1011.16 1011.09 1011.08 1011.10 1011.15 1011.21 1011.26 1011.31 1011.37 1011.43 1011.52 1011.62 1011.73 1011.82 1011.88
1010.04 1010.21 1010.35 1010.44 1010.44 1010.34 1010.15 1009.89 1009.59 1009.30 1009.05 1008.87 1008.74 1008.67 1008.61 1008.52 1008.39 1008.22 1008.02 1007.85 1007.74 1007.76 1007.92 1008.25 1008.71 1009.24 1009.78 1010.25 1010.61 1010.82 1010.90 1010.86 1010.76 1010.65 1010.56 1010.52 1010.55 1010.63 1010.74 1010.85 1010.97 1011.07 1011.16 1011.24 1011.32 1011.38 1011.43 1011.45 1011.43
1010.09 1010.15 1010.19 1010.19 1010.14 1010.03 1009.87 1009.67 1009.46 1009.26 1009.10 1008.98 1008.90 1008.85 1008.79 1008.71 1008.59 1008.42 1008.24 1008.08 1007.98 1007.98 1008.10 1008.35 1008.69 1009.09 1009.47 1009.79 1010.02 1010.12 1010.12 1010.03 1009.92 1009.82 1009.76 1009.78 1009.86 1010.00 1010.17 1010.36 1010.54 1010.69 1010.82 1010.92 1010.99 1011.03 1011.04 1010.99 1010.91
1010.08 1010.05 1010.00 1009.94 1009.85 1009.75 1009.63 1009.51 1009.38 1009.27 1009.18 1009.12 1009.09 1009.06 1009.02 1008.96 1008.86 1008.73 1008.59 1008.46 1008.38 1008.37 1008.44 1008.58 1008.79 1009.01 1009.20 1009.34 1009.39 1009.36 1009.25 1009.11 1008.98 1008.89 1008.87 1008.92 1009.06 1009.25 1009.48 1009.72 1009.95 1010.15 1010.32 1010.45 1010.53 1010.56 1010.53 1010.45 1010.31
1009.99 1009.89 1009.79 1009.69 1009.61 1009.54 1009.48 1009.42 1009.38 1009.35 1009.32 1009.31 1009.31 1009.30 1009.29 1009.26 1009.20 1009.13 1009.05 1008.97 1008.91 1008.89 1008.91 1008.95 1009.00 1009.03 1009.03 1008.96 1008.83 1008.65 1008.45 1008.24 1008.08 1007.99 1007.99 1008.07 1008.23 1008.46 1008.71 1008.98 1009.24 1009.47 1009.68 1009.84 1009.94 1009.98 1009.95 1009.85 1009.68
1009.84 1009.71 1009.59 1009.51 1009.46 1009.45 1009.46 1009.48 1009.51 1009.54 1009.56 1009.58 1009.59 1009.60 1009.61 1009.61 1009.61 1009.59 1009.58 1009.56 1009.54 1009.51 1009.48 1009.42 1009.33 1009.19 1008.99 1008.73 1008.44 1008.12 1007.82 1007.55 1007.36 1007.26 1007.25 1007.33 1007.49 1007.69 1007.94 1008.19 1008.45 1008.70 1008.93 1009.12 1009.25 1009.33 1009.31 1009.22 1009.04
1009.68 1009.56 1009.47 1009.44 1009.46 1009.53 1009.63 1009.74 1009.83 1009.90 1009.95 1009.98 1009.99 1010.00 1010.02 1010.04 1010.08 1010.12 1010.17 1010.20 1010.21 1010.19 1010.11 1009.97 1009.76 1009.47 1009.11 1008.71 1008.27 1007.85 1007.46 1007.14 1006.91 1006.77 1006.73 1006.77 1006.88 1007.04 1007.22 1007.43 1007.66 1007.89 1008.12 1008.34 1008.51 1008.62 1008.65 1008.58 1008.42
1009.59 1009.52 1009.50 1009.56 1009.68 1009.86 1010.05 1010.23 1010.38 1010.48 1010.54 1010.55 1010.55 1010.54 1010.54 1010.58 1010.63 1010.71 1010.80 1010.86 1010.89 1010.86 1010.75 1010.55 1010.25 1009.86 1009.39 1008.88 1008.35 1007.85 1007.39 1007.02 1006.75 1006.56 1006.46 1006.43 1006.45 1006.52 1006.61 1006.74 1006.91 1007.10 1007.32 1007.54 1007.75 1007.91 1007.98 1007.96 1007.82
1009.66 1009.66 1009.74 1009.91 1010.15 1010.43 1010.71 1010.97 1011.16 1011.27 1011.32 1011.31 1011.27 1011.22 1011.20 1011.21 1011.26 1011.34 1011.43 1011.51 1011.54 1011.50 1011.36 1011.12 1010.77 1010.32 1009.79 1009.22 1008.64 1008.08 1007.59 1007.17 1006.84 1006.59 1006.41 1006.28 1006.20 1006.15 1006.13 1006.16 1006.24 1006.38 1006.57 1006.80 1007.03 1007.22 1007.35 1007.36 1007.27
1009.91 1010.00 1010.18 1010.46 1010.82 1011.19 1011.56 1011.86 1012.08 1012.20 1012.22 1012.17 1012.09 1012.00 1011.94 1011.91 1011.93 1011.99 1012.06 1012.11 1012.12 1012.06 1011.90 1011.63 1011.26 1010.78 1010.24 1009.65 1009.05 1008.48 1007.95 1007.49 1007.10 1006.77 1006.50 1006.27 1006.07 1005.90 1005.77 1005.70 1005.70 1005.77 1005.93 1006.14 1006.38 1006.60 1006.76 1006.82 1006.78
1010.32 1010.50 1010.78 1011.16 1011.60 1012.05 1012.46 1012.79 1013.02 1013.12 1013.12 1013.04 1012.92 1012.79 1012.68 1012.62 1012.59 1012.60 1012.63 1012.64 1012.61 1012.52 1012.33 1012.06 1011.68 1011.21 1010.68 1010.10 1009.50 1008.92 1008.37 1007.86 1007.41 1007.01 1006.64 1006.31 1006.01 1005.74 1005.52 1005.36 1005.29 1005.30 1005.41 1005.60 1005.83 1006.07 1006.26 1006.36 1006.36
1010.83 1011.08 1011.44 1011.89 1012.38 1012.86 1013.28 1013.61 1013.81 1013.89 1013.86 1013.76 1013.61 1013.47 1013.34 1013.24 1013.19 1013.15 1013.12 1013.08 1013.01 1012.87 1012.67 1012.38 1012.01 1011.57 1011.05 1010.49 1009.91 1009.32 1008.75 1008.20 1007.69 1007.21 1006.77 1006.36 1005.98 1005.65 1005.36 1005.15 1005.02 1005.00 1005.07 1005.23 1005.44 1005.67 1005.87 1006.00 1006.04
1011.34 1011.65 1012.06 1012.53 1013.02 1013.49 1013.88 1014.16 1014.32 1014.36 1014.31 1014.20 1014.07 1013.93 1013.82 1013.72 1013.65 1013.59 1013.53 1013.44 1013.32 1013.14 1012.91 1012.62 1012.26 1011.83 1011.34 1010.80 1010.23 1009.64 1009.04 1008.45 1007.89 1007.35 1006.85 1006.39 1005.97 1005.60 1005.30 1005.07 1004.92 1004.87 1004.92 1005.04 1005.23 1005.43 1005.63 1005.77 1005.84
1011.77 1012.11 1012.53 1012.99 1013.45 1013.85 1014.16 1014.37 1014.46 1014.46 1014.40 1014.30 1014.21 1014.12 1014.06 1014.01 1013.97 1013.92 1013.84 1013.72 1013.56 1013.35 1013.09 1012.79 1012.43 1012.01 1011.54 1011.02 1010.45 1009.85 1009.23 1008.60 1008.00 1007.42 1006.89 1006.41 1005.99 1005.63 1005.34 1005.12 1004.98 1004.93 1004.95 1005.04 1005.19 1005.37 1005.54 1005.68 1005.77
1012.06 1012.42 1012.84 1013.25 1013.63 1013.93 1014.13 1014.23 1014.24 1014.19 1014.12 1014.06 1014.03 1014.03 1014.06 1014.10 1014.13 1014.12 1014.06 1013.94 1013.76 1013.53 1013.25 1012.92 1012.55 1012.14 1011.68 1011.16 1010.59 1009.98 1009.34 1008.69 1008.06 1007.46 1006.92 1006.45 1006.05 1005.73 1005.48 1005.30 1005.18 1005.13 1005.15 1005.21 1005.32 1005.45 1005.59 1005.72 1005.82
1012.22 1012.59 1012.98 1013.33 1013.61 1013.78 1013.85 1013.83 1013.74 1013.64 1013.57 1013.55 1013.60 1013.72 1013.88 1014.04 1014.17 1014.24 1014.23 1014.12 1013.94 1013.69 1013.39 1013.05 1012.67 1012.25 1011.78 1011.26 1010.69 1010.07 1009.42 1008.76 1008.11 1007.52 1006.99 1006.54 1006.18 1005.91 1005.71 1005.57 1005.49 1005.45 1005.45 1005.49 1005.55 1005.64 1005.74 1005.85 1005.94
1012.29 1012.68 1013.03 1013.32 1013.49 1013.54 1013.47 1013.32 1013.14 1012.98 1012.90 1012.92 1013.06 1013.29 1013.58 1013.88 1014.14 1014.30 1014.36 1014.30 1014.13 1013.87 1013.55 1013.18 1012.78 1012.34 1011.87 1011.35 1010.77 1010.15 1009.50 1008.84 1008.20 1007.62 1007.11 1006.70 1006.38 1006.15 1005.99 1005.90 1005.84 1005.80 1005.79 1005.79 1005.82 1005.86 1005.93 1006.01 1006.09
1012.35 1012.75 1013.08 1013.31 1013.39 1013.33 1013.14 1012.87 1012.60 1012.38 1012.29 1012.34 1012.55 1012.88 1013.29 1013.72 1014.08 1014.35 1014.47 1014.45 1014.30 1014.05 1013.71 1013.32 1012.90 1012.44 1011.95 1011.43 1010.85 1010.24 1009.60 1008.96 1008.34 1007.78 1007.30 1006.91 1006.62 1006.42 1006.28 1006.20 1006.15 1006.11 1006.08 1006.06 1006.05 1006.06 1006.09 1006.14 1006.21
1012.44 1012.86 1013.19 1013.38 1013.40 1013.25 1012.97 1012.61 1012.26 1011.99 1011.87 1011.94 1012.18 1012.59 1013.08 1013.60 1014.06 1014.40 1014.58 1014.60 1014.47 1014.21 1013.86 1013.44 1013.00 1012.52 1012.02 1011.49 1010.93 1010.33 1009.71 1009.09 1008.50 1007.96 1007.50 1007.13 1006.85 1006.65 1006.52 1006.44 1006.38 1006.32 1006.27 1006.22 1006.19 1006.17 1006.19 1006.23 1006.29
1012.60 1013.04 1013.37 1013.55 1013.54 1013.34 1013.01 1012.59 1012.18 1011.87 1011.72 1011.78 1012.03 1012.46 1013.00 1013.56 1014.07 1014.45 1014.68 1014.72 1014.60 1014.33 1013.97 1013.53 1013.06 1012.56 1012.05 1011.52 1010.97 1010.39 1009.80 1009.21 1008.65 1008.13 1007.68 1007.32 1007.03 1006.83 1006.68 1006.57 1006.48 1006.41 1006.34 1006.27 1006.23 1006.20 1006.21 1006.25 1006.31
1012.81 1013.26 1013.61 1013.79 1013.78 1013.58 1013.23 1012.80 1012.36 1012.02 1011.84 1011.86 1012.10 1012.51 1013.03 1013.60 1014.11 1014.51 1014.75 1014.80 1014.68 1014.40 1014.02 1013.56 1013.06 1012.55 1012.02 1011.49 1010.94 1010.39 1009.83 1009.27 1008.74 1008.24 1007.81 1007.44 1007.14 1006.91 1006.74 1006.60 1006.49 1006.39 1006.31 1006.24 1006.19 1006.18 1006.19 1006.24 1006.31
1013.02 1013.47 1013.83 1014.03 1014.04 1013.87 1013.55 1013.13 1012.70 1012.35 1012.15 1012.14 1012.33 1012.69 1013.17 1013.69 1014.18 1014.56 1014.78 1014.82 1014.69 1014.41 1014.01 1013.53 1013.01 1012.47 1011.93 1011.39 1010.85 1010.32 1009.78 1009.25 1008.75 1008.28 1007.85 1007.49 1007.18 1006.93 1006.73 1006.57 1006.44 1006.33 1006.25 1006.18 1006.15 1006.15 1006.18 1006.24 1006.32
1013.18 1013.61 1013.96 1014.18 1014.23 1014.11 1013.84 1013.48 1013.09 1012.76 1012.55 1012.51 1012.65 1012.95 1013.36 1013.81 1014.25 1014.58 1014.77 1014.80 1014.65 1014.36 1013.95 1013.45 1012.91 1012.35 1011.79 1011.24 1010.70 1010.17 1009.66 1009.16 1008.68 1008.24 1007.84 1007.48 1007.18 1006.92 1006.72 1006.55 1006.41 1006.31 1006.23 1006.18 1006.17 1006.19 1006.24 1006.31 1006.39
1013.25 1013.62 1013.94 1014.17 1014.26 1014.19 1014.00 1013.71 1013.39 1013.11 1012.92 1012.87 1012.97 1013.21 1013.55 1013.93 1014.30 1014.58 1014.74 1014.74 1014.58 1014.28 1013.86 1013.35 1012.79 1012.21 1011.63 1011.07 1010.52 1010.00 1009.49 1009.02 1008.57 1008.16 1007.79 1007.46 1007.18 1006.95 1006.75 1006.60 1006.47 1006.38 1006.33 1006.30 1006.30 1006.33 1006.39 1006.46 1006.54
1013.22 1013.51 1013.77 1013.98 1014.09 1014.08 1013.97 1013.77 1013.54 1013.33 1013.19 1013.15 1013.23 1013.43 1013.71 1014.04 1014.34 1014.57 1014.70 1014.68 1014.51 1014.21 1013.78 1013.27 1012.70 1012.10 1011.50 1010.91 1010.35 1009.83 1009.33 1008.88 1008.46 1008.09 1007.76 1007.48 1007.24 1007.04 1006.88 1006.75 1006.66 1006.59 1006.55 1006.54 1006.55 1006.58 1006.63 1006.68 1006.74
Thickness
5800 5807 5811 5808 5801 5796 5790 5798 5804 5804 5807 5815 5817 5813 5808 5804 5798 5790 5811 5819 5817 5813 5805 5795 5791 5788 5785 5782 5779 5777 5774 5771 5769 5766 5764 5761 5759 5757 5754 5752 5750 5749 5747 5745 5744 5743 5742 5741 5739
5805 5808 5806 5805 5797 5785 5788 5800 5799 5803 5810 5817 5815 5812 5808 5806 5811 5810 5812 5814 5813 5810 5803 5795 5788 5785 5781 5778 5776 5773 5771 5768 5765 5762 5760 5758 5756 5754 5752 5750 5748 5746 5745 5743 5742 5740 5739 5738 5737
5805 5806 5802 5802 5794 5788 5789 5800 5803 5808 5814 5813 5811 5812 5807 5803 5808 5810 5812 5813 5811 5806 5801 5792 5785 5781 5778 5775 5772 5770 5767 5764 5761 5759 5756 5754 5752 5751 5749 5747 5745 5744 5742 5740 5739 5738 5736 5735 5734
5803 5801 5801 5795 5787 5795 5798 5802 5806 5807 5810 5813 5811 5804 5807 5809 5810 5812 5812 5811 5808 5804 5799 5789 5782 5778 5774 5771 5769 5766 5763 5761 5759 5757 5754 5752 5750 5748 5746 5744 5743 5741 5739 5738 5737 5735 5734 5733 5732
5802 5799 5791 5787 5788 5797 5803 5806 5808 5804 5805 5807 5808 5799 5798 5807 5811 5811 5809 5807 5804 5801 5796 5787 5778 5774 5771 5768 5765 5763 5760 5758 5756 5754 5751 5749 5747 5745 5743 5742 5740 5738 5737 5735 5734 5733 5731 5730 5729
5796 5797 5786 5780 5786 5796 5802 5808 5807 5805 5805 5808 5805 5799 5795 5805 5805 5804 5805 5802 5802 5796 5792 5783 5775 5771 5768 5765 5762 5759 5757 5755 5753 5751 5748 5746 5743 5741 5739 5738 5737 5735 5733 5732 5732 5730 5728 5728 5726
5791 5790 5784 5785 5785 5790 5797 5807 5804 5802 5801 5803 5806 5797 5794 5799 5801 5801 5801 5799 5797 5793 5789 5782 5777 5770 5765 5762 5759 5757 5754 5752 5749 5747 5745 5742 5740 5737 5736 5734 5733 5731 5729 5728 5728 5727 5726 5724 5723
5796 5791 5784 5786 5784 5786 5799 5803 5804 5801 5798 5806 5805 5793 5788 5793 5798 5797 5795 5793 5790 5787 5783 5779 5775 5771 5767 5762 5757 5754 5751 5749 5747 5744 5742 5740 5737 5735 5732 5730 5729 5728 5726 5724 5724 5723 5723 5721 5720
5794 5784 5780 5784 5784 5788 5798 5797 5800 5805 5801 5799 5800 5796 5796 5797 5795 5791 5787 5785 5783 5780 5778 5776 5773 5769 5766 5763 5757 5752 5749 5746 5744 5742 5739 5737 5737 5735 5732 5729 5726 5724 5722 5721 5720 5719 5719 5718 5718
5788 5780 5782 5791 5794 5793 5795 5795 5796 5796 5791 5790 5791 5792 5794 5792 5788 5784 5781 5779 5776 5774 5773 5773 5771 5768 5765 5761 5756 5752 5749 5746 5743 5742 5739 5736 5735 5733 5731 5726 5723 5720 5719 5717 5716 5716 5715 5716 5718
5785 5781 5787 5791 5796 5795 5792 5792 5797 5791 5783 5785 5785 5785 5787 5785 5783 5781 5778 5777 5774 5772 5769 5769 5767 5763 5760 5757 5754 5750 5747 5744 5741 5738 5735 5733 5731 5729 5727 5725 5721 5718 5717 5716 5715 5715 5715 5716 5716
5782 5784 5787 5789 5793 5792 5790 5790 5788 5786 5784 5790 5790 5788 5785 5781 5778 5776 5774 5771 5770 5767 5764 5763 5762 5758 5755 5752 5749 5746 5744 5741 5738 5733 5730 5729 5728 5726 5723 5721 5718 5716 5715 5714 5713 5712 5712 5712 5712
5780 5782 5786 5790 5790 5790 5788 5784 5782 5781 5786 5789 5787 5783 5780 5778 5775 5773 5771 5768 5765 5762 5760 5758 5756 5752 5748 5745 5742 5742 5739 5736 5732 5729 5726 5724 5723 5721 5720 5717 5713 5714 5712 5711 5709 5709 5708 5707 5708
5783 5784 5784 5787 5787 5787 5782 5782 5780 5776 5783 5780 5778 5776 5775 5772 5770 5767 5764 5762 5760 5756 5753 5752 5749 5746 5743 5740 5736 5735 5734 5730 5728 5725 5722 5719 5718 5716 5715 5713 5710 5710 5708 5707 5705 5704 5703 5703 5703
5784 5779 5780 5783 5784 5785 5783 5772 5772 5776 5777 5772 5771 5769 5767 5766 5765 5761 5759 5756 5754 5751 5748 5745 5744 5741 5737 5735 5733 5731 5729 5725 5724 5721 5717 5714 5713 5710 5709 5708 5707 5706 5704 5702 5702 5700 5700 5700 5700
5781 5777 5772 5778 5780 5782 5775 5761 5766 5774 5771 5765 5764 5763 5761 5760 5760 5757 5755 5752 5749 5746 5742 5739 5739 5735 5732 5729 5727 5726 5723 5721 5718 5716 5713 5709 5707 5705 5703 5703 5703 5701 5700 5699 5697 5697 5695 5694 5694
5775 5769 5767 5771 5778 5778 5773 5761 5763 5770 5766 5761 5760 5758 5757 5756 5754 5752 5750 5748 5744 5740 5736 5733 5732 5728 5726 5724 5721 5720 5717 5714 5713 5711 5708 5705 5702 5700 5698 5697 5696 5695 5695 5694 5693 5692 5689 5689 5688
5761 5765 5764 5765 5772 5772 5766 5759 5761 5764 5762 5759 5756 5753 5751 5750 5748 5747 5745 5743 5739 5736 5732 5728 5725 5722 5720 5718 5715 5714 5711 5709 5707 5705 5701 5698 5696 5694 5692 5692 5690 5690 5690 5688 5686 5684 5683 5683 5682
5766 5763 5761 5764 5770 5766 5760 5754 5755 5757 5756 5754 5753 5751 5747 5745 5745 5743 5740 5737 5734 5730 5726 5722 5719 5716 5713 5710 5708 5705 5704 5702 5700 5698 5695 5692 5690 5688 5685 5685 5682 5682 5682 5680 5680 5678 5678 5678 5677
5764 5759 5760 5762 5766 5761 5755 5751 5753 5753 5752 5751 5748 5745 5743 5740 5738 5736 5734 5731 5728 5724 5720 5717 5713 5710 5706 5703 5700 5698 5696 5694 5693 5691 5687 5685 5683 5680 5680 5677 5676 5675 5674 5673 5672 5671 5671 5673 5672
5761 5759 5758 5756 5758 5760 5751 5744 5747 5748 5748 5746 5745 5744 5741 5737 5733 5730 5727 5725 5722 5718 5714 5711 5706 5703 5699 5696 5694 5692 5689 5687 5686 5683 5681 5678 5675 5673 5671 5671 5669 5668 5668 5667 5665 5665 5664 5665 5666
5757 5764 5760 5756 5751 5752 5748 5737 5739 5742 5739 5737 5738 5738 5736 5733 5730 5725 5722 5719 5716 5712 5709 5705 5700 5696 5693 5689 5687 5683 5681 5679 5677 5674 5673 5671 5669 5667 5665 5663 5662 5661 5663 5661 5661 5661 5660 5658 5659
5759 5765 5761 5757 5752 5748 5748 5738 5736 5739 5730 5730 5732 5732 5730 5728 5725 5720 5717 5713 5711 5707 5703 5699 5694 5690 5687 5683 5680 5676 5675 5672 5671 5667 5665 5663 5663 5660 5659 5658 5656 5655 5656 5656 5655 5653 5654 5654 5654
5764 5761 5758 5757 5755 5736 5741 5734 5730 5733 5728 5728 5729 5727 5724 5722 5719 5715 5713 5709 5705 5702 5698 5693 5687 5683 5681 5677 5674 5670 5667 5665 5662 5659 5658 5658 5657 5655 5654 5652 5651 5650 5651 5650 5650 5649 5649 5648 5647
5760 5750 5741 5738 5738 5737 5742 5732 5725 5730 5730 5727 5723 5721 5720 5717 5714 5710 5706 5702 5698 5694 5690 5686 5682 5677 5675 5671 5668 5664 5661 5658 5655 5653 5653 5651 5651 5651 5649 5648 5646 5646 5646 5646 5645 5644 5644 5643 5641
5752 5748 5731 5720 5726 5735 5736 5726 5726 5729 5726 5724 5723 5719 5716 5712 5709 5705 5701 5696 5692 5688 5684 5681 5677 5673 5669 5666 5662 5659 5656 5655 5653 5650 5648 5647 5646 5646 5644 5642 5641 5641 5641 5642 5641 5641 5640 5639 5637
5747 5747 5748 5734 5732 5724 5730 5726 5722 5723 5719 5716 5714 5712 5708 5706 5703 5700 5696 5692 5687 5683 5679 5676 5672 5668 5665 5662 5658 5655 5653 5650 5648 5645 5644 5644 5642 5642 5640 5638 5637 5637 5637 5637 5637 5636 5634 5633 5633
5752 5746 5739 5730 5712 5711 5721 5721 5715 5709 5707 5708 5706 5704 5703 5700 5698 5695 5692 5688 5684 5680 5676 5672 5668 5663 5660 5657 5654 5653 5649 5646 5644 5642 5640 5639 5638 5637 5636 5635 5634 5633 5633 5633 5632 5632 5630 5628 5627
5739 5735 5732 5729 5722 5708 5706 5710 5714 5707 5704 5702 5701 5699 5697 5695 5693 5691 5688 5685 5681 5677 5674 5668 5664 5660 5656 5652 5649 5647 5645 5643 5640 5638 5637 5635 5634 5633 5632 5631 5630 5630 5630 5629 5627 5628 5626 5624 5622
5739 5732 5727 5713 5710 5713 5708 5704 5713 5708 5704 5700 5696 5694 5692 5689 5688 5687 5684 5680 5677 5674 5670 5666 5661 5657 5653 5649 5646 5643 5641 5638 5636 5634 5633 5631 5630 5630 5629 5628 5627 5627 5626 5625 5623 5622 5622 5620 5617